Flag Weather past 2 weeks in Zárate, Buenos Aires, Argentina

Now
72 °F

Partly sunny.


Feels Like: 76 °F
Forecast: N/A
Wind: 9 mph from East

Location: Buenos Aires Airport

Current Time: Nov 26, 2014 at 5:44:25 PM

Latest Report: Nov 26, 2014 at 5:00 PM


Visibility: N/A

Pressure: 29.92 "Hg

Humidity: 61%

Dew point: 57 °F

Location of ZárateLocation

Historic Weather in Zárate — Graph

°F

Zárate temperature yesterday

Maximum temperature yesterday: 72 °F (at 3:00 PM)
Minimum temperature yesterday: 63 °F (at 5:00 AM)
Average temperature yesterday: 68 °F

Past Weeks' High & Low Weather Summary

 TemperatureHumidityPressure
High88 °F (Nov 18, 4:00 PM)94% (Nov 19, 9:00 AM)30.15 "Hg (Nov 19, 9:00 AM)
Low55 °F (Nov 13, 5:00 AM)29% (Nov 13, 4:00 AM)29.65 "Hg (Nov 18, 6:00 PM)
Average71 °F60%29.92 "Hg
* Reported Nov 11 4:00 PM — Nov 26 4:00 PM, Zárate, Weather by CustomWeather, © 2014

Note: Actual official high and low records may vary slightly from our data, if they occured in-between our weather recording intervals... More about our weather records

Advertising

Zárate weather history for previous 24 hours

 ConditionsComfort  
Time TempWeatherWind HumidityBarometerVisibility
4:00 PM
Nov 26
72 °FPartly sunny.6 mph61%29.92 "HgN/A
3:00 PM72 °FScattered clouds.6 mph61%29.95 "HgN/A
2:00 PM72 °FScattered clouds.7 mph61%29.95 "HgN/A
1:00 PM72 °FSunny.7 mph53%29.98 "Hg10 mi
12:00 PM70 °FSunny.5 mph60%29.98 "Hg10 mi
11:00 AM70 °FSunny.7 mph57%29.98 "Hg10 mi
10:00 AM68 °FSunny.5 mph60%29.98 "Hg10 mi
9:00 AM68 °FSunny.3 mph64%29.98 "Hg10 mi
8:00 AM68 °FSunny.5 mph69%29.98 "Hg10 mi
7:00 AM66 °FPartly sunny.5 mph73%29.98 "HgN/A
6:00 AM64 °FSunny.6 mph68%29.98 "Hg10 mi
5:00 AM64 °FPassing clouds.6 mph73%29.95 "HgN/A
4:00 AM64 °FPassing clouds.6 mph78%29.95 "HgN/A
3:00 AM66 °FPassing clouds.6 mph73%29.92 "HgN/A
2:00 AM66 °FPassing clouds.10 mph52%29.95 "HgN/A
1:00 AM66 °FPassing clouds.10 mph52%29.92 "HgN/A
12:00 AM66 °FPassing clouds.13 mph56%29.92 "HgN/A
11:00 PM
Nov 25
66 °FPassing clouds.14 mph56%29.95 "HgN/A
10:00 PM66 °FClear.12 mph56%29.92 "Hg10 mi
8:00 PM68 °FPassing clouds.10 mph49%29.92 "HgN/A
7:00 PM68 °FClear.10 mph49%29.92 "Hg10 mi
6:00 PM70 °FSunny.12 mph50%29.89 "Hg10 mi
5:00 PM70 °FSunny.13 mph53%29.92 "Hg10 mi
Weather by CustomWeather, © 2014

See weather overviewHow to use our weather pages